Location: Nirvana
(45.0297°N, 77.2628°W)
Time: 09:47:30
(UTC-05:00)

Envisat - Pass Details

Date: 30 October 2019
Orbit: 764 x 766 km, 98.1° (Epoch: 17 November)

Event Time Altitude Azimuth Distance (km) Brightness Sun altitude
Rises 20:39:18 0° 216° (SW) 3,221 6.6 -28.6°
Reaches altitude 10° 20:42:51 10° 243° (WSW) 2,301 6.1 -29.2°
Maximum altitude 20:45:19 14° 272° (W) 2,067 6.1 -29.6°
Drops below altitude 10° 20:47:48 10° 301° (WNW) 2,309 6.3 -30.0°
Sets 20:51:23 0° 328° (NNW) 3,241 6.8 -30.7°
